User: anonymous   Login
Location: Arbon
(43.0005°N, 0.7472°E)
Time: 11:03:14
(UTC+00:00)
Language:

Meteor 2-5 Rocket - Orbit

View from above orbital plane
View from above orbital plane
View from above satellite
View from above satellite

Ground track
Ground track

The orbit data is extracted from the following two-line orbital elements,

1 11608U 79095B   20299.89934750 +.00000059 +00000-0 +28215-4 0  9999
2 11608 081.2104 100.5480 0054104 317.2045 042.4916 14.06161334102231
Epoch (UTC): 25 October 2020 21:35:03
Eccentricity: 0.0054104
inclination: 81.2104°
perigee height: 833 km
apogee height: 912 km
right ascension of ascending node: 100.5480°
argument of perigee: 317.2045°
revolutions per day: 14.06161334
mean anomaly at epoch: 42.4916°
orbit number at epoch: 10223

The dashed part of the orbit path shows where the satellite is in the earth's shadow,  

DLR